EW6205 Weather Reports


time (UTC)temp
F
wind
direction
speed
knots
gust
knots
rain 1hr
in
rain 24hr
in
rain mn
in
humidity
%
barometer
mb
20260502170205 65 332 7.0 13.0 0.00 0.00 0.00 36 1011.2
20260502164206 64 311 7.8 13.9 0.00 0.00 0.00 37 1011.1
20260502163705 64 321 6.1 13.9 0.00 0.00 0.00 37 1011.2
20260502163205 64 311 6.1 13.9 0.00 0.00 0.00 37 1011.1
20260502162705 64 12 7.0 13.9 0.00 0.00 0.00 37 1011.0
20260502162205 63 336 7.0 14.8 0.00 0.00 0.00 37 1011.0
20260502161706 63 340 7.0 14.8 0.00 0.00 0.00 39 1010.9
20260502161207 63 331 7.0 14.8 0.00 0.00 0.00 39 1010.9
20260502160205 62 342 6.1 12.2 0.00 0.00 0.00 40 1010.9
20260502152205 62 349 6.1 13.0 0.00 0.00 0.00 39 1010.5
20260502151207 62 335 5.2 10.4 0.00 0.00 0.00 40 1010.5
20260502150705 61 315 5.2 10.4 0.00 0.00 0.00 40 1010.5
20260502150205 61 320 3.5 7.0 0.00 0.00 0.00 40 1010.5
20260502130705 48 215 0.0 1.7 0.00 0.00 0.00 52 1010.6
20260502130205 48 217 0.0 1.7 0.00 0.00 0.00 53 1010.6
20260502123705 47 233 0.0 3.5 0.00 0.00 0.00 52 1010.5
20260502123207 46 249 0.0 5.2 0.00 0.00 0.00 53 1010.4
20260502122706 46 172 0.9 5.2 0.00 0.00 0.00 53 1010.4
20260502122205 46 224 1.7 3.5 0.00 0.00 0.00 53 1010.4
20260502115705 46 236 0.0 2.6 0.00 0.00 0.00 52 1010.2
20260502115205 46 153 0.0 2.6 0.00 0.00 0.00 53 1010.2
20260502114707 46 201 0.0 3.5 0.00 0.00 0.00 53 1010.2
20260502114206 46 224 0.9 3.5 0.00 0.00 0.00 52 1010.2
20260502113705 46 229 0.9 3.5 0.00 0.00 0.00 52 1010.1
20260502113205 47 235 0.0 3.5 0.00 0.00 0.00 53 1010.1
20260502112705 47 144 0.0 4.3 0.00 0.00 0.00 52 1010.2
20260502111707 47 188 0.9 4.3 0.00 0.00 0.00 49 1010.4
20260502111205 47 143 0.9 6.1 0.00 0.00 0.00 49 1010.3
20260502110207 48 224 1.7 7.8 0.00 0.00 0.00 48 1010.1
20260502105705 48 215 2.6 7.8 0.00 0.00 0.00 47 1010.1
20260502105205 49 251 2.6 7.8 0.00 0.00 0.00 47 1010.1
20260502104705 48 212 2.6 5.2 0.00 0.00 0.00 47 1010.2
20260502104207 48 222 1.7 4.3 0.00 0.00 0.00 47 1010.3
20260502103707 48 207 0.9 3.5 0.00 0.00 0.00 48 1010.3
20260502103205 47 234 0.0 0.0 0.00 0.00 0.00 48 1010.4
20260502102706 47 239 0.0 0.0 0.00 0.00 0.00 49 1010.4
20260502102205 47 239 0.0 0.0 0.00 0.00 0.00 49 1010.4
20260502101707 47 234 0.0 0.0 0.00 0.00 0.00 48 1010.2
20260502100705 47 234 0.0 1.7 0.00 0.00 0.00 49 1010.1
20260502100206 47 234 0.0 1.7 0.00 0.00 0.00 49 1010.1
20260502091205 49 174 0.0 1.7 0.00 0.00 0.00 48 1010.4
20260502090205 49 165 0.0 0.9 0.00 0.00 0.00 48 1010.4
20260502071207 49 150 0.9 2.6 0.00 0.00 0.00 45 1011.5
20260502070705 49 150 0.0 2.6 0.00 0.00 0.00 45 1011.5
20260502070205 49 160 0.0 2.6 0.00 0.00 0.00 45 1011.6
20260502065705 49 161 0.9 2.6 0.00 0.00 0.00 45 1011.7
20260502065205 49 162 0.0 3.5 0.00 0.00 0.00 45 1011.7
20260502064705 50 134 0.0 3.5 0.00 0.00 0.00 45 1011.7
20260502063706 50 157 0.0 1.7 0.00 0.00 0.00 43 1011.7
20260502063204 50 141 0.0 3.5 0.00 0.00 0.00 44 1011.7
20260502062706 50 135 0.0 5.2 0.00 0.00 0.00 42 1011.7
20260502062205 50 144 0.9 5.2 0.00 0.00 0.00 42 1011.8
20260502061705 50 195 0.9 5.2 0.00 0.00 0.00 42 1011.8
20260502061205 50 203 0.0 2.6 0.00 0.00 0.00 42 1011.9
20260502060704 50 158 0.0 2.6 0.00 0.00 0.00 41 1011.9
20260502060205 51 153 0.0 2.6 0.00 0.00 0.00 41 1012.0
20260502055205 51 123 0.0 2.6 0.00 0.00 0.00 40 1012.0
20260502054705 51 150 0.0 2.6 0.00 0.00 0.00 40 1012.0
20260502054205 51 241 0.0 2.6 0.00 0.00 0.00 39 1012.0
20260502052705 51 124 0.0 0.0 0.00 0.00 0.00 39 1012.1
20260502052205 52 95 0.0 0.9 0.00 0.00 0.00 38 1012.2
20260502051706 52 113 0.0 0.9 0.00 0.00 0.00 38 1012.2
20260502051205 52 132 0.0 0.9 0.00 0.00 0.00 38 1012.1
20260502050205 52 140 0.0 0.9 0.00 0.00 0.00 37 1012.2
20260502045705 52 148 0.0 0.0 0.00 0.00 0.00 37 1012.3
20260502045204 52 160 0.0 0.0 0.00 0.00 0.00 37 1012.3
20260502044705 52 134 0.0 0.0 0.00 0.00 0.00 38 1012.4
20260502044205 51 134 0.0 0.0 0.00 0.00 0.00 39 1012.5
20260502043707 50 149 0.0 0.0 0.00 0.00 0.00 40 1012.5
20260502042705 51 149 0.0 0.0 0.00 0.00 0.00 40 1012.6
20260502042205 51 149 0.0 0.0 0.00 0.00 0.00 39 1012.8
20260502040704 52 149 0.0 0.0 0.00 0.00 0.00 38 1012.9
20260502035206 53 149 0.0 0.0 0.00 0.00 0.00 36 1012.9
20260502034705 54 149 0.0 0.0 0.00 0.00 0.00 35 1012.9
20260502034205 54 154 0.0 0.0 0.00 0.00 0.00 34 1013.0
20260502033205 56 153 0.0 0.0 0.00 0.00 0.00 33 1013.0
20260502032705 57 153 0.0 0.0 0.00 0.00 0.00 32 1013.0
20260502032205 58 154 0.0 3.5 0.00 0.00 0.00 31 1013.1
20260502031706 58 158 0.0 3.5 0.00 0.00 0.00 30 1013.1
20260502031205 58 171 0.0 2.6 0.00 0.00 0.00 30 1013.2
20260502030705 59 186 0.0 2.6 0.00 0.00 0.00 29 1013.1
20260502030205 59 227 0.0 3.5 0.00 0.00 0.00 28 1013.1
20260502025706 59 231 0.0 3.5 0.00 0.00 0.00 28 1013.1
20260502025205 60 167 0.0 3.5 0.00 0.00 0.00 28 1013.1
20260502024205 60 146 0.9 5.2 0.00 0.00 0.00 27 1013.0
20260502023705 61 168 0.9 5.2 0.00 0.00 0.00 26 1013.0
20260502023205 61 145 0.9 5.2 0.00 0.00 0.00 26 1012.9
20260502022706 62 134 0.9 4.3 0.00 0.00 0.00 26 1012.9
20260502022206 62 192 0.9 4.3 0.00 0.00 0.00 26 1013.0
20260502021705 62 168 0.9 4.3 0.00 0.00 0.00 26 1013.0
20260502021205 63 163 0.9 4.3 0.00 0.00 0.00 26 1012.9
20260502020707 63 114 0.0 4.3 0.00 0.00 0.00 26 1013.0
20260502020205 63 198 0.0 2.6 0.00 0.00 0.00 25 1013.0
20260502015205 64 162 0.0 4.3 0.00 0.00 0.00 24 1013.1
20260502014205 65 183 0.9 3.5 0.00 0.00 0.00 23 1013.1
20260502013705 65 209 0.0 6.1 0.00 0.00 0.00 23 1013.1
20260502013205 66 133 0.9 6.1 0.00 0.00 0.00 22 1013.1
20260502012706 67 229 0.9 6.1 0.00 0.00 0.00 22 1013.1
20260502012205 67 185 1.7 6.1 0.00 0.00 0.00 21 1013.2
20260502011705 67 248 1.7 6.1 0.00 0.00 0.00 21 1013.2
20260502010705 68 239 1.7 6.1 0.00 0.00 0.00 21 1013.3
20260502010205 68 128 1.7 6.1 0.00 0.00 0.00 21 1013.4
20260502005206 69 237 0.9 6.1 0.00 0.00 0.00 20 1013.4
20260502004705 68 209 0.9 6.1 0.00 0.00 0.00 20 1013.4
20260502004205 69 242 0.9 3.5 0.00 0.00 0.00 20 1013.5
20260502003706 69 268 0.9 5.2 0.00 0.00 0.00 19 1013.6
20260502003204 69 226 0.9 7.8 0.00 0.00 0.00 19 1013.6
20260502002706 69 236 0.9 10.4 0.00 0.00 0.00 19 1013.7
20260502002206 69 233 1.7 10.4 0.00 0.00 0.00 20 1013.7
20260502001705 69 207 2.6 7.0 0.00 0.00 0.00 19 1013.8
20260502001205 69 201 0.9 6.1 0.00 0.00 0.00 19 1013.8
20260502000707 69 314 0.9 6.1 0.00 0.00 0.00 19 1013.8
20260502000205 69 240 0.0 3.5 0.00 0.00 0.00 20 1013.8
20260501235206 69 215 0.9 7.0 0.00 0.00 0.00 19 1013.8
20260501234705 69 217 1.7 5.2 0.00 0.00 0.00 19 1013.9
20260501234205 70 293 0.9 5.2 0.00 0.00 0.00 19 1013.9
20260501233706 70 226 0.0 5.2 0.00 0.00 0.00 20 1013.9
20260501232705 69 222 0.9 7.8 0.00 0.00 0.00 20 1014.1
20260501232206 69 231 0.9 8.7 0.00 0.00 0.00 20 1014.1
20260501231705 69 277 0.9 8.7 0.00 0.00 0.00 20 1014.2
20260501230707 69 330 1.7 7.0 0.00 0.00 0.00 20 1014.2
20260501230205 70 227 0.9 7.0 0.00 0.00 0.00 20 1014.3
20260501225705 69 191 0.0 5.2 0.00 0.00 0.00 21 1014.3
20260501225206 69 229 0.9 5.2 0.00 0.00 0.00 21 1014.3
20260501224706 69 221 0.9 9.6 0.00 0.00 0.00 20 1014.4
20260501224205 69 231 1.7 10.4 0.00 0.00 0.00 21 1014.6
20260501223206 69 219 2.6 10.4 0.00 0.00 0.00 21 1014.7
20260501222705 69 213 0.9 6.1 0.00 0.00 0.00 20 1014.7
20260501221705 69 223 1.7 11.3 0.00 0.00 0.00 21 1014.8
20260501221207 68 131 1.7 11.3 0.00 0.00 0.00 21 1014.9
20260501220705 69 234 0.9 6.1 0.00 0.00 0.00 21 1014.9
20260501220213 68 221 0.9 6.1 0.00 0.00 0.00 21 1014.9
20260501215206 68 139 1.7 7.8 0.00 0.00 0.00 21 1015.0
20260501214706 67 345 0.9 7.8 0.00 0.00 0.00 22 1015.1
20260501213705 68 309 3.5 9.6 0.00 0.00 0.00 22 1015.3
20260501212205 69 268 0.9 6.1 0.00 0.00 0.00 21 1015.3
20260501211705 68 158 0.9 6.1 0.00 0.00 0.00 22 1015.4
20260501211205 67 175 1.7 7.0 0.00 0.00 0.00 22 1015.5
20260501210705 67 239 1.7 7.0 0.00 0.00 0.00 21 1015.5
20260501210205 67 256 0.9 5.2 0.00 0.00 0.00 22 1015.5
20260501205705 68 155 0.9 7.0 0.00 0.00 0.00 23 1015.5
20260501205204 67 205 1.7 7.0 0.00 0.00 0.00 23 1015.6
20260501204707 66 125 0.9 7.0 0.00 0.00 0.00 22 1015.6
20260501204205 68 302 0.9 5.2 0.00 0.00 0.00 21 1015.7
20260501203705 67 241 0.9 7.0 0.00 0.00 0.00 22 1015.8
20260501203206 67 231 1.7 7.0 0.00 0.00 0.00 23 1015.8
20260501202705 65 224 1.7 7.0 0.00 0.00 0.00 24 1015.8
20260501202205 65 317 1.7 5.2 0.00 0.00 0.00 23 1015.9
20260501201705 66 339 0.9 7.0 0.00 0.00 0.00 23 1015.9
20260501201207 66 266 0.9 7.0 0.00 0.00 0.00 24 1015.9
20260501200707 65 205 1.7 7.0 0.00 0.00 0.00 24 1016.0
20260501195205 64 299 1.7 9.6 0.00 0.00 0.00 25 1016.1
20260501194706 64 321 2.6 9.6 0.00 0.00 0.00 24 1016.2
20260501194205 65 203 1.7 7.8 0.00 0.00 0.00 24 1016.2
20260501193704 65 240 1.7 7.0 0.00 0.00 0.00 25 1016.1
20260501193207 65 302 0.9 6.1 0.00 0.00 0.00 24 1016.1
20260501192705 65 237 0.9 6.1 0.00 0.00 0.00 26 1016.1
20260501192205 64 320 0.9 5.2 0.00 0.00 0.00 24 1016.2
20260501191707 66 328 0.9 7.0 0.00 0.00 0.00 24 1016.2
20260501191206 66 299 1.7 7.0 0.00 0.00 0.00 25 1016.3
20260501190705 65 177 1.7 7.0 0.00 0.00 0.00 25 1016.3
20260501190205 65 210 1.7 7.8 0.00 0.00 0.00 25 1016.3
20260501185707 65 243 2.6 7.8 0.00 0.00 0.00 25 1016.5
20260501185207 64 188 1.7 7.8 0.00 0.00 0.00 25 1016.5
20260501184705 63 147 0.0 6.1 0.00 0.00 0.00 27 1016.6
20260501184205 62 334 0.9 6.1 0.00 0.00 0.00 27 1016.5
20260501183706 63 340 1.7 7.0 0.00 0.00 0.00 26 1016.6
20260501183206 63 328 1.7 7.0 0.00 0.00 0.00 26 1016.7
20260501182705 63 242 1.7 7.0 0.00 0.00 0.00 25 1016.7
20260501182207 63 275 1.7 7.0 0.00 0.00 0.00 26 1016.7
20260501181705 64 298 0.9 7.8 0.00 0.00 0.00 26 1016.6
20260501180707 62 143 1.7 7.8 0.00 0.00 0.00 27 1016.8